Regional Weather Roundup
Issued by NWS

Home | Current Version | Previous Version | Graphics & Text | Print | Product List | Glossary On
Versions: 1 2 3 4 5 6 7 8 9 10 11 12 13 14 15 16 17 18 19 20 21 22 23 24 25 26 27 28 29 30 31 32 33 34 35 36 37 38 39 40 41 42 43 44 45 46 47 48 49 50
000
ASUS43 KBIS 021002
RWRND

NORTH DAKOTA REGIONAL WEATHER ROUNDUP
NATIONAL WEATHER SERVICE BISMARCK ND
500 AM CDT TUE JUN 02 2015

NOTE: "FAIR" INDICATES FEW OR NO CLOUDS BELOW 12,000 FEET WITH NO
SIGNIFICANT WEATHER AND/OR OBSTRUCTIONS TO VISIBILITY.


NDZ001>003-009>011-017-021100-
NORTHWEST NORTH DAKOTA

CITY           SKY/WX    TMP DP  RH WIND       PRES   REMARKS
WILLISTON      CLOUDY    64  57  78 NE8       29.82S
MINOT          CLOUDY    59  57  93 SW7       29.82R
MINOT AFB      CLOUDY    58  58 100 SW3       29.81R
$$

NDZ018>021-031>035-040>046-021100-
SOUTHWEST NORTH DAKOTA

CITY           SKY/WX    TMP DP  RH WIND       PRES   REMARKS
BISMARCK       CLOUDY    62  58  86 NW12      29.80F
DICKINSON      LGT RAIN  58  56  93 NE12      29.81F
GARRISON         N/A     62  56  80 W5        29.83R
HETTINGER ARPT CLOUDY    60  54  80 NE16G25   29.83S
$$

NDZ004>008-012>016-024-026-027-054-021100-
NORTHEAST NORTH DAKOTA

CITY           SKY/WX    TMP DP  RH WIND       PRES   REMARKS
GRAND FORKS    LGT RAIN  57  54  89 SW13      29.86R
GRND FRKS AFB  LGT RAIN  57  54  91 S15       29.84R FOG
DEVILS LAKE    CLOUDY    61  55  82 SE13      29.81S
$$

NDZ022-023-025-028>030-036>039-047>053-021100-
SOUTHEAST NORTH DAKOTA

CITY           SKY/WX    TMP DP  RH WIND       PRES   REMARKS
FARGO          CLOUDY    63  47  55 S21G26    29.85F
JAMESTOWN      CLOUDY    63  55  75 SW10      29.82R
$$




USA.gov is the U.S. government's official web portal to all federal, state and local government web resources and services.